Location: Acton
(51.4942°N, 0.2232°W)
Time: 18:52:07
(UTC+00:00)

Nadezhda 4 Rocket - Visible Passes

Search period start: 15 January 2021 00:00
Search period end: 25 January 2021 00:00
Orbit: 949 x 993 km, 82.9° (Epoch: 15 January)

Date Brightness Start Highest point End Pass type
(mag) Time Alt. Az. Time Alt. Az. Time Alt. Az.
15 Jan 5.4 05:08:38 10° N 05:14:17 36° ENE 05:19:53 10° SE visible
15 Jan 4.2 06:53:54 10° NNW 06:59:44 46° W 07:05:31 10° SSW visible
15 Jan 5.7 17:05:18 10° ENE 17:05:26 10° ENE 17:05:34 10° ENE visible
15 Jan 4.0 18:43:14 10° SSE 18:49:18 54° E 18:55:21 10° NNE visible
15 Jan 5.5 20:29:21 10° SW 20:34:54 32° WNW 20:40:27 10° N visible
16 Jan 6.7 03:49:05 10° NNE 03:51:46 13° NE 03:54:26 10° ENE visible
16 Jan 4.5 05:32:29 10° N 05:38:34 57° ENE 05:44:34 10° SSE visible
16 Jan 4.8 07:18:21 10° NNW 07:23:29 29° W 07:28:35 10° SW visible
16 Jan 5.3 17:25:00 10° ESE 17:28:53 17° ENE 17:32:45 10° NE visible
16 Jan 3.9 19:06:59 10° S 19:13:16 86° E 19:19:31 10° N visible
16 Jan 6.1 20:54:46 10° WSW 20:59:24 21° WNW 21:04:03 10° NNW visible
17 Jan 6.3 04:12:03 10° NNE 04:16:28 20° ENE 04:20:50 10° ESE visible
17 Jan 3.9 05:56:30 10° N 06:02:41 90° W 06:08:48 10° S visible
17 Jan 4.8 17:47:19 10° SE 17:52:29 28° E 17:57:38 10° NNE visible
17 Jan 4.4 19:31:11 10° SSW 19:37:22 61° WNW 19:43:32 10° N visible
17 Jan 6.6 21:21:00 10° W 21:24:05 14° NW 21:27:09 10° NNW visible
18 Jan 5.6 04:35:36 10° N 04:40:59 30° ENE 04:46:18 10° SE visible
18 Jan 4.0 06:20:39 10° NNW 06:26:39 56° W 06:32:35 10° S visible
18 Jan 4.2 18:10:21 10° SSE 18:16:14 45° E 18:22:05 10° NNE visible
18 Jan 5.2 19:55:50 10° SW 20:01:38 39° WNW 20:07:24 10° N visible
19 Jan 6.8 03:17:01 10° NE 03:18:17 11° NE 03:19:32 10° ENE visible
19 Jan 4.9 04:59:23 10° N 05:05:19 48° ENE 05:11:12 10° SSE visible
19 Jan 4.5 06:45:00 10° NNW 06:50:27 35° W 06:55:53 10° SSW visible
19 Jan 3.9 18:33:54 10° S 18:40:08 72° E 18:46:19 10° NNE visible
19 Jan 5.9 20:21:00 10° WSW 20:26:03 25° WNW 20:31:06 10° N visible
20 Jan 6.4 03:39:13 10° NNE 03:43:03 17° NE 03:46:52 10° E visible
20 Jan 4.1 05:23:20 10° N 05:29:30 76° ENE 05:35:37 10° SSE visible
20 Jan 5.0 07:09:38 10° NNW 07:14:07 22° W 07:18:35 10° SW visible
20 Jan 5.0 17:14:46 10° SE 17:19:29 23° E 17:24:11 10° NNE visible
20 Jan 4.2 18:57:56 10° SSW 19:04:10 73° WNW 19:10:23 10° N visible
20 Jan 6.5 20:46:51 10° W 20:50:39 16° NW 20:54:26 10° NNW visible
21 Jan 5.9 04:02:37 10° N 04:07:39 26° ENE 04:12:38 10° ESE visible
21 Jan 3.8 05:47:25 10° NNW 05:53:31 69° W 05:59:35 10° S visible
21 Jan 4.5 17:37:33 10° SSE 17:43:10 37° E 17:48:47 10° NNE visible
21 Jan 4.9 19:22:23 10° SW 19:28:22 46° WNW 19:34:19 10° N visible
21 Jan 6.8 21:14:27 10° WNW 21:15:26 10° NW 21:16:25 10° NW visible
22 Jan 5.2 04:26:19 10° N 04:32:04 39° ENE 04:37:45 10° SE visible
22 Jan 4.3 06:11:41 10° NNW 06:17:24 42° W 06:23:05 10° SSW visible
22 Jan 4.0 18:00:55 10° S 18:07:00 59° E 18:13:05 10° NNE visible
22 Jan 5.7 19:47:21 10° SW 19:52:43 30° WNW 19:58:05 10° N visible
23 Jan 6.6 03:06:31 10° NNE 03:09:37 14° NE 03:12:41 10° E visible
23 Jan 4.3 04:50:11 10° N 04:56:17 63° ENE 05:02:20 10° SSE visible
23 Jan 4.8 06:36:10 10° NNW 06:41:07 26° W 06:46:03 10° SW visible
23 Jan 4.0 18:24:44 10° S 18:30:59 87° W 18:37:13 10° N visible
23 Jan 6.3 20:12:53 10° WSW 20:17:15 19° WNW 20:21:36 10° NNW visible
24 Jan 6.1 03:29:40 10° NNE 03:34:16 22° ENE 03:38:51 10° ESE visible
24 Jan 3.8 05:14:14 10° NNW 05:20:23 83° W 05:26:30 10° S visible
24 Jan 5.3 07:01:09 10° NW 07:04:42 16° WNW 07:08:14 10° WSW visible
24 Jan 4.7 17:04:50 10° SE 17:10:08 30° E 17:15:25 10° NNE visible
24 Jan 4.6 18:49:02 10° SSW 18:55:07 55° WNW 19:01:12 10° N visible
24 Jan 6.7 20:39:25 10° WNW 20:41:57 12° NW 20:44:29 10° NNW visible
